Retour au catalogue

BREEZE-M DEB

ActifHEO
NORAD 34243·DEBRIS·🇷🇺 Russia

Lancé Feb 28, 2006 depuis Baikonur Cosmodrome

Loading…

Prochains Passages (prochaines 24 heures)

TLE

FraisSource: Space-Track

Époque: Sep 11, 2026, 16:29 UTC

1 34243U 06006BJ  26254.68710633  .00003197  00000-0  34392-2 0  9994
2 34243  51.6488  40.9160 5024513 124.0359 294.2582  5.39615385 63044

Suivez BREEZE-M DEB en temps réel avec AllMySat

Download on the App Store